Date,TemperatureHighF,TemperatureAvgF,TemperatureLowF,DewpointHighF,DewpointAvgF,DewpointLowF,HumidityHigh,HumidityAvg,HumidityLow,PressureMaxIn,PressureMinIn,WindSpeedMaxMPH,WindSpeedAvgMPH,GustSpeedMaxMPH,PrecipitationSumIn
2013-3-1,30,27,25,25,22,18,89,80,72,30.34,30.17,15,3,15,0.00
2013-3-2,32,25,16,22,18,13,92,76,64,30.36,30.19,12,2,12,0.00
2013-3-3,36,30,22,25,21,17,84,70,54,30.19,29.90,15,2,15,0.02
2013-3-4,39,33,28,31,29,25,91,84,73,29.95,29.77,16,3,16,0.02
2013-3-5,32,30,27,30,25,21,94,82,72,30.30,29.93,24,3,24,0.05
2013-3-6,32,26,22,23,-2,-100,85,78,66,30.44,30.30,16,2,16,0.01
2013-3-7,36,29,24,26,-25,-100,84,76,64,30.38,30.24,13,2,13,0.01
2013-3-8,45,35,25,34,29,22,91,78,60,30.29,30.02,14,2,15,0.11
2013-3-9,38,12,34,35,-59,-100,89,27,69,30.02,29.78,10,-686,11,0.05
2013-3-10,36,34,33,35,33,32,96,95,95,29.78,29.66,19,4,20,0.29
2013-3-11,27,26,25,22,21,20,83,81,80,29.97,29.91,14,4,14,0.00
2013-3-12,34,27,21,27,22,18,89,79,68,30.27,29.96,25,4,25,0.04
2013-3-13,35,25,18,21,17,13,84,72,46,30.47,30.27,13,1,13,0.07
2013-3-14,50,38,28,37,29,20,90,72,56,30.33,30.06,14,2,14,0.03
2013-3-15,58,41,29,46,36,27,100,84,61,30.07,29.68,12,1,12,0.01
2013-3-16,38,33,28,35,27,21,91,79,66,30.21,29.77,23,5,23,0.01
2013-3-17,39,31,22,29,23,18,82,72,57,30.21,29.83,17,4,17,0.01
2013-3-18,34,30,23,32,24,14,94,78,61,30.01,29.72,30,3,30,0.14
2013-3-19,39,26,18,22,15,8,78,62,44,30.28,30.00,18,3,18,0.02
2013-3-20,27,22,15,20,11,5,77,62,48,30.37,30.17,28,4,28,0.02
2013-3-21,35,24,12,19,12,6,82,63,44,30.17,29.98,14,2,14,0.00
2013-3-22,38,29,19,25,19,14,89,67,45,30.08,29.99,10,1,4,0.00
2013-3-23,38,32,28,29,24,19,91,73,48,30.14,30.00,14,2,14,0.00
2013-3-24,32,30,28,28,27,24,93,89,75,30.03,29.90,18,4,18,0.04
2013-3-25,36,31,28,27,25,22,93,77,56,30.27,29.98,20,4,20,0.13
2013-3-26,39,30,23,25,22,18,89,71,52,30.36,30.27,15,2,15,0.00
2013-3-27,47,35,22,28,25,19,95,69,45,30.35,30.24,12,1,12,0.00
2013-3-28,57,42,26,36,31,24,92,68,44,30.31,30.18,13,1,13,0.00
2013-3-29,64,48,30,38,34,27,93,62,35,30.26,30.07,14,1,14,0.00
2013-3-30,60,50,43,52,44,36,94,80,56,30.07,29.82,14,1,14,0.10
2013-3-31,53,43,35,42,34,21,95,72,37,30.09,29.86,26,3,26,0.01